When you browse on this site, cookies collect data to enhance your experience and personalize the content and advertising you see.
Visit our Privacy Policy to learn more. By continuing to use the site, you agree to this use of cookies and data.
  • în România
  • Lista ţărilor
  • Pe 7 zile
  • Temperatura apei
  • Meteo pe hartă
  • Widget-uri
  • user-avatar
    Intrare

    Meteo pe oră la Trowbridge

    Astăzi, 8 Decembrie, Duminică

    Timp Temperatura Precipitaţii Vânt Presiune Umiditate
    00:00 +9°C° 0 mm 10 m/s 749 mmHg 89%
    01:00 +9°C° 1.8 mm 10 m/s 748 mmHg 90%
    02:00 +11°C° 1.8 mm 10 m/s 747 mmHg 92%
    03:00 +12°C° 1.8 mm 10 m/s 746 mmHg 93%
    04:00 +10°C° 0.1 mm 9 m/s 746 mmHg 90%
    05:00 +9°C° 0.1 mm 8 m/s 747 mmHg 87%
    06:00 +8°C° 0.1 mm 7 m/s 747 mmHg 83%
    07:00 +6°C° 0 mm 7 m/s 747 mmHg 83%
    08:00 +6°C° 0 mm 7 m/s 748 mmHg 83%
    09:00 +5°C° 0 mm 7 m/s 748 mmHg 83%
    10:00 +6°C° 0.2 mm 8 m/s 748 mmHg 82%
    11:00 +6°C° 0.2 mm 9 m/s 748 mmHg 81%
    12:00 +6°C° 0.2 mm 10 m/s 748 mmHg 81%
    13:00 +6°C° 0.3 mm 9 m/s 747 mmHg 79%
    14:00 +6°C° 0.3 mm 9 m/s 746 mmHg 77%
    15:00 +5°C° 0.3 mm 9 m/s 746 mmHg 75%
    16:00 +5°C° 0.1 mm 8 m/s 745 mmHg 77%
    17:00 +4°C° 0.1 mm 8 m/s 745 mmHg 79%
    18:00 +4°C° 0.1 mm 8 m/s 745 mmHg 82%
    19:00 +4°C° 0.3 mm 8 m/s 743 mmHg 83%
    20:00 +3°C° 0.3 mm 9 m/s 742 mmHg 84%
    21:00 +3°C° 0.3 mm 10 m/s 741 mmHg 85%
    22:00 +5°C° 0.8 mm 9 m/s 741 mmHg 84%
    23:00 +5°C° 0.8 mm 9 m/s 740 mmHg 83%

    Mâine, 9 Decembrie, Luni

    Timp Temperatura Precipitaţii Vânt Presiune Umiditate
    00:00 +5°C° 0.8 mm 9 m/s 740 mmHg 82%
    01:00 +5°C° 0.2 mm 10 m/s 741 mmHg 80%
    02:00 +4°C° 0.2 mm 11 m/s 742 mmHg 79%
    03:00 +5°C° 0.2 mm 12 m/s 744 mmHg 77%
    04:00 +4°C° 0 mm 12 m/s 745 mmHg 76%
    05:00 +4°C° 0 mm 11 m/s 747 mmHg 75%
    06:00 +3°C° 0 mm 10 m/s 749 mmHg 74%
    07:00 +3°C° 0 mm 9 m/s 751 mmHg 74%
    08:00 +3°C° 0 mm 9 m/s 753 mmHg 73%
    09:00 +4°C° 0 mm 8 m/s 754 mmHg 73%
    10:00 +4°C° 0 mm 8 m/s 756 mmHg 71%
    11:00 +5°C° 0 mm 8 m/s 757 mmHg 69%
    12:00 +6°C° 0 mm 8 m/s 759 mmHg 67%
    13:00 +5°C° 0 mm 7 m/s 759 mmHg 69%
    14:00 +5°C° 0 mm 6 m/s 760 mmHg 71%
    15:00 +6°C° 0 mm 5 m/s 761 mmHg 72%
    16:00 +5°C° 0 mm 4 m/s 762 mmHg 76%
    17:00 +4°C° 0 mm 4 m/s 763 mmHg 79%
    18:00 +3°C° 0 mm 3 m/s 763 mmHg 82%
    19:00 +3°C° 0 mm 3 m/s 764 mmHg 83%
    20:00 +4°C° 0 mm 2 m/s 764 mmHg 84%
    21:00 +3°C° 0 mm 2 m/s 764 mmHg 84%
    22:00 +3°C° 0 mm 2 m/s 764 mmHg 85%
    23:00 +3°C° 0 mm 2 m/s 764 mmHg 86%

    Poimâine, 10 Decembrie, Marţi

    Timp Temperatura Precipitaţii Vânt Presiune Umiditate
    00:00 +3°C° 0 mm 2 m/s 764 mmHg 87%
    01:00 +2°C° 0 mm 3 m/s 763 mmHg 88%
    02:00 +3°C° 0 mm 3 m/s 763 mmHg 90%
    03:00 +3°C° 0 mm 3 m/s 762 mmHg 91%
    04:00 +4°C° 0 mm 4 m/s 761 mmHg 90%
    05:00 +5°C° 0 mm 5 m/s 760 mmHg 90%
    06:00 +5°C° 0 mm 5 m/s 759 mmHg 90%
    07:00 +5°C° 0.3 mm 7 m/s 759 mmHg 90%
    08:00 +6°C° 0.3 mm 8 m/s 758 mmHg 90%
    09:00 +7°C° 0.3 mm 9 m/s 757 mmHg 89%
    10:00 +7°C° 1.3 mm 10 m/s 756 mmHg 90%
    11:00 +8°C° 1.3 mm 11 m/s 755 mmHg 91%
    12:00 +8°C° 1.3 mm 11 m/s 754 mmHg 92%
    13:00 +9°C° 0.6 mm 12 m/s 752 mmHg 92%
    14:00 +9°C° 0.6 mm 12 m/s 751 mmHg 91%
    15:00 +10°C° 0.6 mm 12 m/s 750 mmHg 90%
    16:00 +9°C° 1.4 mm 11 m/s 750 mmHg 90%
    17:00 +7°C° 1.4 mm 10 m/s 750 mmHg 89%
    18:00 +6°C° 1.4 mm 8 m/s 751 mmHg 88%
    19:00 +6°C° 0.2 mm 7 m/s 752 mmHg 86%
    20:00 +6°C° 0.2 mm 5 m/s 753 mmHg 85%
    21:00 +5°C° 0.2 mm 4 m/s 753 mmHg 83%
    22:00 +5°C° 0 mm 4 m/s 754 mmHg 84%
    23:00 +4°C° 0 mm 3 m/s 754 mmHg 85%

    11 Decembrie, Miercuri

    Timp Temperatura Precipitaţii Vânt Presiune Umiditate
    00:00 +3°C° 0 mm 3 m/s 754 mmHg 85%
    01:00 +3°C° 0 mm 3 m/s 754 mmHg 86%
    02:00 +3°C° 0 mm 3 m/s 754 mmHg 87%
    03:00 +3°C° 0 mm 3 m/s 754 mmHg 88%
    04:00 +3°C° 0 mm 3 m/s 753 mmHg 88%
    05:00 +3°C° 0 mm 4 m/s 753 mmHg 88%
    06:00 +3°C° 0 mm 4 m/s 752 mmHg 88%
    07:00 +2°C° 0 mm 5 m/s 751 mmHg 86%
    08:00 +2°C° 0 mm 5 m/s 751 mmHg 85%
    09:00 +3°C° 0 mm 6 m/s 750 mmHg 83%
    10:00 +3°C° 0.1 mm 6 m/s 749 mmHg 83%
    11:00 +3°C° 0.1 mm 7 m/s 748 mmHg 83%
    12:00 +4°C° 0.1 mm 8 m/s 747 mmHg 82%
    13:00 +3°C° 0.6 mm 7 m/s 747 mmHg 82%
    14:00 +3°C° 0.6 mm 6 m/s 747 mmHg 82%
    15:00 +3°C° 0.6 mm 5 m/s 747 mmHg 82%
    16:00 +2°C° 0.1 mm 5 m/s 747 mmHg 82%
    17:00 +2°C° 0.1 mm 5 m/s 748 mmHg 81%
    18:00 +1°C° 0.1 mm 5 m/s 748 mmHg 81%
    19:00 +1°C° 0 mm 5 m/s 749 mmHg 82%
    20:00 +1°C° 0 mm 5 m/s 749 mmHg 82%
    21:00 +1°C° 0 mm 5 m/s 750 mmHg 83%
    22:00 +1°C° 0 mm 4 m/s 750 mmHg 82%
    23:00 +1°C° 0 mm 4 m/s 750 mmHg 82%

    12 Decembrie, Joi

    Timp Temperatura Precipitaţii Vânt Presiune Umiditate
    00:00 +1°C° 0 mm 4 m/s 750 mmHg 82%
    01:00 +1°C° 0 mm 4 m/s 750 mmHg 83%
    02:00 +1°C° 0 mm 4 m/s 750 mmHg 84%
    03:00 +1°C° 0 mm 5 m/s 750 mmHg 85%
    04:00 +2°C° 0.1 mm 5 m/s 749 mmHg 85%
    05:00 +2°C° 0.1 mm 6 m/s 748 mmHg 86%
    06:00 +3°C° 0.1 mm 7 m/s 747 mmHg 87%
    07:00 +4°C° 0.1 mm 7 m/s 746 mmHg 87%
    08:00 +5°C° 0.1 mm 8 m/s 745 mmHg 87%
    09:00 +6°C° 0.1 mm 9 m/s 743 mmHg 87%
    10:00 +6°C° 1.6 mm 10 m/s 741 mmHg 89%
    11:00 +7°C° 1.6 mm 11 m/s 739 mmHg 90%
    12:00 +7°C° 1.6 mm 12 m/s 737 mmHg 91%
    13:00 +7°C° 0.6 mm 11 m/s 736 mmHg 90%
    14:00 +8°C° 0.6 mm 9 m/s 735 mmHg 89%
    15:00 +9°C° 0.6 mm 8 m/s 734 mmHg 87%
    16:00 +9°C° 1.1 mm 8 m/s 733 mmHg 89%
    17:00 +8°C° 1.1 mm 9 m/s 732 mmHg 90%
    18:00 +8°C° 1.1 mm 9 m/s 731 mmHg 92%
    19:00 +8°C° 1.9 mm 10 m/s 731 mmHg 89%
    20:00 +7°C° 1.9 mm 10 m/s 730 mmHg 86%
    21:00 +7°C° 1.9 mm 10 m/s 730 mmHg 83%
    22:00 +6°C° 0.2 mm 10 m/s 730 mmHg 83%
    23:00 +3°C° 0.2 mm 10 m/s 731 mmHg 83%

    13 Decembrie, Vineri

    Timp Temperatura Precipitaţii Vânt Presiune Umiditate
    00:00 +2°C° 0.2 mm 9 m/s 731 mmHg 82%
    01:00 +2°C° 0.2 mm 9 m/s 732 mmHg 80%
    02:00 +2°C° 0.2 mm 9 m/s 732 mmHg 78%
    03:00 +2°C° 0.2 mm 9 m/s 732 mmHg 75%
    04:00 +2°C° 0.1 mm 9 m/s 733 mmHg 74%
    05:00 +2°C° 0.1 mm 9 m/s 733 mmHg 74%
    06:00 +2°C° 0.1 mm 9 m/s 734 mmHg 73%
    07:00 +2°C° 0 mm 9 m/s 735 mmHg 73%
    08:00 +2°C° 0 mm 9 m/s 736 mmHg 73%
    09:00 +2°C° 0 mm 9 m/s 736 mmHg 73%
    10:00 +3°C° 0.1 mm 9 m/s 737 mmHg 72%
    11:00 +3°C° 0.1 mm 10 m/s 738 mmHg 71%
    12:00 +5°C° 0.1 mm 10 m/s 738 mmHg 69%
    13:00 +3°C° 0.1 mm 10 m/s 739 mmHg 72%
    14:00 +3°C° 0.1 mm 9 m/s 739 mmHg 74%
    15:00 +3°C° 0.1 mm 9 m/s 740 mmHg 76%
    16:00 +4°C° 0 mm 8 m/s 740 mmHg 77%
    17:00 +3°C° 0 mm 7 m/s 740 mmHg 79%
    18:00 +3°C° 0 mm 6 m/s 740 mmHg 80%
    19:00 +3°C° 0 mm 5 m/s 740 mmHg 83%
    20:00 +4°C° 0 mm 4 m/s 739 mmHg 86%
    21:00 +4°C° 0 mm 4 m/s 739 mmHg 88%
    22:00 +5°C° 0.7 mm 4 m/s 738 mmHg 91%
    23:00 +5°C° 0.7 mm 5 m/s 737 mmHg 93%
    Arată mai mult